OBJECT U, 62395

Orbit data source: Space-Track

You're viewing an Uncataloged Satellite

Recently launched and/or uncataloged satellites may have evolving metadata. Metadata may include but not limited to: Owner, Maufacturer, Bus, Motor, and Mission.

OBJECT U, 62395 is a satellite in LEO that was launched on Sat, 21 Dec 2024 UTC via an FALCON 9 launch vehicle from the Air Force Western Test Range (AFWTR). Unknown objects in Earth's orbit typically refer to objects detected orbiting the Earth but have not yet been identified or cataloged. These objects could be anything from previously untracked satellites, spent rocket stages, debris from satellite collisions, or even natural meteoroids temporarily captured by Earth's gravity.

Loading next visibility...
Identifier
62395, 2024-247U
Orbit
LEO
Country
Flag of TBDTBD
Related business
Flag of USONDO Space LLC (US)
Manufacturer
ONDO Space
Mission
Operational Commercial Communications
Bus & Motor
CUBESAT 0.5U, Unknown motor
Mass
0.25 kg wet, 0.25 kg dry
Launch date (UTC)
2024-12-21 (1 year ago)
Launch vehicle
FALCON 9
Launch site
Air Force Western Test Range (AFWTR)
Object type
Unknown
Shape & HBR
Box, 0.0 m
Radar Cross Section
0.004 m², Small (<0.1 m²)

Expand to show TLE details & history
Last TLE update: 20 hours ago

TLE from 20 hours ago
0 OBJECT U
1 62395U 24247U   26023.30576647  .00040298  00000-0  10428-2 0  9995
2 62395  44.9994 346.4462 0007461  83.4315 276.7422 15.38446951 61011
Epoch: 2026-01-23T07:20Z
TLE epoch observation values (Epoch: 2026-01-23T07:20:18.223Z)
Latitude
Longitude
113.7238°
Altitude
450.105 km
Speed
7.644 km/s
True Right ascension
23h 05m 47s
True Declination
0° 00' 00"
Sunlit
Object was in daylight at epoch
Visualization orbit readout
Latitude
Unknown
Longitude
Unknown
Altitude
Unknown
Speed
Unknown
Apparent Right ascension
Unknown
Apparent Declination
Unknown
Sunlit
N/A
Visualization observer readout
Local Sidereal Time
04:10:46
Azimuth
Unknown
Elevation
Unknown
Doppler factor
Unknown
Orbital elements
Apogee altitude
457.414 km
Perigee altitude
447.222 km
Semi-major axis
6,830.455 km
Eccentricity
0.00075
Inclination
44.9994°
RAAN
346.4462°
Arg. of periapsis
83.4315°
True anomaly
276.65729°
Mean anomaly
276.7422°
Eccentric anomaly
276.69974°
Mean motion
3.84476 °/min
Orbital period
93.63 mins
BSTAR
0.0010428
Loading maneuver chart data...
Computing Atmospheric mass density...
Loading historical data...
Loading historical data...
Loading historical data...
Loading historical data...
Loading historical data...
Loading historical data...
Loading historical data...

Documentation

Showing up to 5 results
|